Regional Weather Roundup
Issued by NWS Charleston, SC

Current Version | Previous Version | Graphics & Text | Print | Product List | Glossary On
Versions: 1 2 3 4 5 6 7 8 9 10 11 12 13 14 15 16 17 18 19 20 21 22 23 24 25 26 27 28 29 30 31 32 33 34 35 36 37 38 39 40 41 42 43 44 45 46 47 48 49 50
000 ASUS42 KCHS 280025 RWRCHS REGIONAL WEATHER ROUNDUP NATIONAL WEATHER SERVICE CHARLESTON SC 700 PM EST TUE JAN 27 2015 NOTE: "FAIR" INDICATES FEW OR NO CLOUDS BELOW 12,000 FEET WITH NO SIGNIFICANT WEATHER AND/OR OBSTRUCTIONS TO VISIBILITY. NOT ALL STATIONS ARE QUALITY CONTROLLED BY THE NATIONAL WEATHER SERVICE. USE DATA WITH CAUTION...ESPECIALLY DEWPOINT OBSERVATIONS. SCZ027-030-031-034>040-042>050-280100- ...SOUTHEAST SOUTH CAROLINA... CITY SKY/WX TMP DP RH WIND PRES REMARKS N CHARLESTON PTCLDY 42 26 53 W5 29.95R 6HR MIN TEMP: 40; 6HR MAX TEMP: 51; WATERFRONT PRK N/A 46 N/A N/A W3 N/A MOUNT PLEASANT LGT RAIN N/A N/A N/A CALM 29.95R PINOPOLIS NOT AVBL MONCKS CORNER FAIR 39 32 75 CALM 29.95R SUMMERVILLE NOT AVBL BEAUFORT MCAS CLEAR 43 32 65 CALM 29.97R 6HR MIN TEMP: 43; 6HR MAX TEMP: 51; BEAUFORT ARPT FAIR 41 36 81 CALM 29.96R HILTON HEAD IS CLEAR 43 34 70 CALM 29.98R WALTERBORO CLEAR 41 30 65 CALM 29.96S ALLENDALE FAIR 41 32 70 CALM 29.96R ...SOUTHERN MIDLANDS AND PEE DEE... CITY SKY/WX TMP DP RH WIND PRES REMARKS GEORGETOWN NOT AVBL KINGSTREE NOT AVBL ORANGEBURG CLEAR 42 27 55 CALM 29.94R 6HR MIN TEMP: 42; 6HR MAX TEMP: 50; BARNWELL FAIR 39 32 75 CALM 29.96R AIKEN MOCLDY 41 30 65 CALM 29.98R MANNING FAIR 37 28 70 CALM 29.94R COLUMBIA PTCLDY 45 26 47 NW6 29.94R 6HR MIN TEMP: 42; 6HR MAX TEMP: 51; SUMTER CLEAR 42 25 50 W1 29.92R 6HR MIN TEMP: 42; 6HR MAX TEMP: 49; FLORENCE CLEAR 40 21 46 CALM 29.92R 6HR MIN TEMP: 40; 6HR MAX TEMP: 49; MYRTLE BEACH CLEAR 39 21 48 W6 29.93R WCI 35 N MYRTLE BEACH CLEAR 38 28 67 CALM 29.91R 6HR MIN TEMP: 38; 6HR MAX TEMP: 47; $$ GAZ063-065-086>088-099>101-113>116-118-119-134>141-150-280100- ...SOUTHEAST GEORGIA... CITY SKY/WX TMP DP RH WIND PRES REMARKS SAVANNAH ARPT PTCLDY 45 30 55 W6 29.97R 6HR MIN TEMP: 45; 6HR MAX TEMP: 55; HUNTER AAF CLEAR 45 31 58 W7 29.95R 6HR MIN TEMP: 45; 6HR MAX TEMP: 56; FORT STEWART CLEAR 46 31 56 W5 29.97R 6HR MIN TEMP: 46; 6HR MAX TEMP: 55; STATESBORO CLEAR 43 32 65 W6 29.98R SYLVANIA PTCLDY 41 37 83 CALM 29.98R CLAXTON FAIR 43 36 75 CALM 29.99R ...CSRA...CENTRAL AND FAR SOUTHEAST GEORGIA... CITY SKY/WX TMP DP RH WIND PRES REMARKS THOMSON CLEAR 47 32 56 NW10G18 30.03R AUGUSTA-BUSH PTCLDY 43 29 57 W6 29.96R 6HR MIN TEMP: 43; 6HR MAX TEMP: 53; AUGUSTA-DANIEL CLEAR 49 28 44 W9 29.96R SWAINSBORO FAIR 45 27 49 W5 30.00R VIDALIA CLEAR 46 32 57 NW3 30.00R EASTMAN FAIR 47 31 53 NW5 30.04R HAZLEHURST FAIR 49 33 53 N5 30.00R ALMA CLEAR 48 31 51 N3 29.99R 6HR MIN TEMP: 48; 6HR MAX TEMP: 57; WAYCROSS CLEAR 52 36 54 N3 30.00R JESUP FAIR 46 36 66 CALM 30.00R BAXLEY FAIR 48 34 57 N3 30.00R BRUNSWICK CLEAR 45 34 65 CALM 30.00R SAINT SIMONS CLEAR 49 31 49 N3 29.98R 6HR MIN TEMP: 49; 6HR MAX TEMP: 58; $$ SCZ027-028-034-036>038-045-046-048>050-GAZ119-141-280100- ...LAKE AND SUPPLEMENTAL COASTAL OBSERVATIONS... STATION/POSITION TIME TEMP WIND PRES WAVE SWELL AIR SEA DIR/SP/G HT/PER HT/PER/DIR (UTC) (F) (DEG/KT/KT) (MB) (FT/S) (FT/S/D) UPR LAKE MARION NOT AVBL WINYAH BAY 2300 45 290/ 5 1011.0R LAKE MURRAY 2300 47 290/ 3/ 5 1012.5R ACE BASIN NERRS NOT AVBL FORT PULASKI 0000 48 52 300/ 6/ 7 1015.2R SAPELO ISLAND 0000 47 320/ 5 1015.0R $$ ANZ835-935-AMZ111-154-330-350-352-354-370-450-454-472-280100- ...C-MAN AND BUOY OBSERVATIONS... STATION/POSITION TIME TEMP WIND PRES WAVE SWELL AIR SEA DIR/SP/G HT/PER HT/PER/DIR (UTC) (F) (DEG/KT/KT) (MB) (FT/S) (FT/S/D) BUOY 41004 2350 51 67 310/ 19/ 25 1012.7R 5/ 5 2/11 BUOY 41008 2350 53 54 310/ 16/ 21 1014.6R 3/ 4 FOLLY BEACH CMAN 0000 43 260/ 3/ 4 1014.7R CAPERS NEARSHORE 2300 48 330/ 16/ 19 N/A FRIPP NEARSHORE 2300 49 330/ 10/ 12 N/A STATION/POSITION TIME TEMP WIND PRES WAVE SWELL AIR SEA DIR/SP/G HT/PER HT/PER/DIR (UTC) (F) (DEG/KT/KT) (MB) (FT/S) (FT/S/D) 5E ST. MARYS GA 2322 58 N/A 2/ 3 FRYING PAN BUOY 2350 46 65 310/ 17/ 21 1012.5R 5/ 8 3/200/ 8 BUOY 41025 2350 40 69 330/ 21/ 27 1009.4R 9/14 7/ 40/14 CAPE LOOKOUT NC 0000 39 320/ 12/ 16 1011.4R BUOY 41002 2350 56 71 310/ 27/ 33 1007.2R 14/ 9 10/270/ 9 BUOY 41010 2320 64 75 280/ 21/ 29 1012.8R ST AUGUSTINE FL 0000 56 340/ 12/ 15 1015.0R $$

USA.gov is the U.S. government's official web portal to all federal, state and local government web resources and services.